Location: Port-Aux-Quilles Astronomical Observatory
(47.9769°N, 69.9642°W)
Time: 21:14:19
(UTC-05:00)

Envisat - Pass Details

Date: 25 October 2019
Orbit: 764 x 766 km, 98.1° (Epoch: 21 November)

Event Time Altitude Azimuth Distance (km) Brightness Sun altitude
Rises 20:26:18 0° 226° (SW) 3,225 6.6 -29.4°
Maximum altitude 20:31:50 10° 276° (W) 2,309 6.4 -30.3°
Drops below altitude 10° 20:31:54 10° 277° (W) 2,309 6.4 -30.3°
Sets 20:37:25 0° 326° (NW) 3,244 6.9 -31.2°
